[[{"header":{"parameterUnit":"m.s-1","parameterCategory":1,"la1":30.2991,"la2":30.254,"lo1":-89.0895,"lo2":-89.0444,"dy":0.0017,"dx":0.0017,"nx":28,"ny":28,"refTime":"2024-08-23T21:00:00:Z","depth":0,"parameterNumber":2,"parameterNumberName":"U-component_of_WINDS"},"data":[0,0,0,0,0,0,0,0,0,0,0,0,0,0,0,0,0,0,0,0,0,0,0,0,0,0,0,0,0,0,0,0,0,0,0,0,0,0,0,0,0,0,0,0,0,0,0,0,0,0,0,0,0,0,0,0,0,0,-3.4529,-3.4529,0,-3.4522,-3.4522,-3.4522,-3.4435,-3.4432,-3.443,-3.4428,-3.4421,-3.4423,-3.4425,0,0,0,0,0,0,0,0,0,0,0,0,0,-3.4468,-3.447,-3.4529,-3.4529,-3.4529,-3.4522,-3.4522,-3.4522,-3.4435,-3.4432,-3.443,-3.4427,-3.4421,-3.4423,-3.4425,0,0,0,0,0,0,0,0,0,0,0,0,0,-3.4481,-3.447,-3.4529,-3.4485,-3.4481,-3.4522,-3.4522,-3.4522,-3.4436,-3.4432,-3.4429,-3.4426,-3.442,-3.4423,-3.4426,-3.4509,0,0,-3.4434,-3.4435,0,0,0,0,0,0,0,0,-3.4481,-3.4484,-3.4491,-3.4488,-3.4483,-3.4476,-3.4498,-3.4518,-3.4436,-3.4453,-3.4428,-3.4424,-3.4442,-3.4443,-3.4449,-3.4509,-3.4509,-3.4434,-3.4436,-3.4437,-3.4438,0,0,0,0,0,0,0,-3.448,-3.4483,-3.4526,-3.4492,-3.4487,-3.4466,-3.4464,-3.4501,-3.4466,-3.4451,-3.4445,-3.4445,-3.4439,-3.4447,-3.4448,-3.4509,-3.4434,-3.4437,-3.4439,-3.444,-3.4638,-3.4641,0,0,0,0,0,0,-3.4485,-3.4483,-3.4527,-3.4526,-3.4474,-3.4469,-3.4467,-3.4482,-3.4466,-3.446,-3.4448,-3.4441,-3.4443,-3.4445,-3.4448,-3.4544,-3.4437,-3.444,-3.4442,-3.4634,-3.4638,-3.4642,0,0,0,0,0,0,-3.4484,-3.449,-3.4527,-3.4503,-3.4506,-3.4474,-3.4491,-3.4483,-3.449,-3.4463,-3.4456,-3.4462,-3.4441,-3.4444,-3.4495,-3.4543,-3.4441,-3.4444,-3.463,-3.4635,-3.464,-3.4738,0,0,0,0,0,0,-3.4483,-3.449,-3.4521,-3.4504,-3.4508,-3.4574,-3.4494,-3.4486,-3.4495,-3.4486,-3.4474,-3.4469,-3.4438,-3.4491,-3.4498,-3.4545,-3.4446,-3.4625,-3.4632,-3.4639,-3.473,-3.4746,-3.476,0,0,0,0,0,-3.4481,-3.4548,-3.4523,-3.4528,-3.4546,-3.4577,-3.4579,-3.4542,-3.45,-3.453,-3.4514,-3.4469,-3.4537,-3.4497,-3.4504,-3.4552,-3.4622,-3.463,-3.4638,-3.4724,-3.4743,-3.4759,0,0,0,0,0,0,-3.4571,-3.4545,-3.4517,-3.4581,-3.4582,-3.4562,-3.4599,-3.4564,-3.4576,-3.4567,-3.4522,-3.452,-3.4578,-3.457,-3.4526,-3.4633,-3.4572,-3.4582,-3.4635,-3.4653,-3.4667,-3.4667,-3.4448,0,0,0,0,0,-3.4598,-3.4625,-3.4602,-3.4661,-3.4663,-3.4632,-3.4644,-3.4616,-3.4615,-3.4615,-3.4601,-3.4602,-3.4623,-3.4638,-3.4656,-3.473,-3.4726,-3.4767,-3.4782,-3.4794,-3.4802,-3.484,-3.4858,-3.4669,-3.4668,-3.4668,0,0,-3.4655,-3.4645,-3.4664,-3.4679,-3.4676,-3.4705,-3.4632,-3.4666,-3.4687,-3.462,-3.4666,-3.4658,-3.4655,-3.4718,-3.4745,-3.4714,-3.4854,-3.4804,-3.4814,-3.4815,-3.485,-3.4868,-3.4884,-3.4674,-3.4673,-3.4672,0,0,-3.4772,-3.4768,-3.4816,-3.4816,-3.4813,-3.4792,-3.4804,-3.479,-3.4781,-3.4828,-3.4778,-3.4804,-3.4841,-3.4842,-3.4847,-3.4968,-3.4928,-3.4976,-3.5051,-3.5089,-3.5104,-3.5117,-3.5159,-3.5175,-3.4985,-3.4985,-3.4985,0,-3.4843,-3.4884,-3.4846,-3.4883,-3.4891,-3.4833,-3.4882,-3.4883,-3.4887,-3.4894,-3.4859,-3.4906,-3.4901,-3.4962,-3.4992,-3.4999,-3.5011,-3.4975,-3.5105,-3.5118,-3.5129,-3.5169,-3.5185,-3.4991,-3.499,-3.4989,-3.4989,0,-3.4971,-3.5001,-3.5041,-3.5046,-3.5059,-3.5102,-3.5071,-3.5089,-3.5061,-3.5044,-3.5093,-3.5085,-3.51,-3.5114,-3.5087,-3.5173,-3.5153,-3.5113,-3.505,-3.5153,-3.519,-3.5205,-3.4999,-3.4997,-3.4995,-3.4994,0,0,-3.5141,-3.5127,-3.5142,-3.5143,-3.5137,-3.516,-3.5202,-3.5217,-3.5233,-3.5239,-3.5272,-3.5307,-3.5269,-3.5276,-3.5249,-3.5283,-3.5378,-3.5238,-3.5237,-3.5263,-3.5472,-3.55,-3.5518,-3.5353,-3.5356,-3.5358,-3.5471,0,-3.5254,-3.5322,-3.529,-3.5363,-3.539,-3.5336,-3.5372,-3.5373,-3.5359,-3.5381,-3.5366,-3.539,-3.534,-3.5344,-3.5375,-3.536,-3.5419,-3.5352,-3.5382,-3.5384,-3.5382,-3.5538,-3.5568,-3.5675,-3.5485,-3.5488,-3.5489,0,-3.5392,-3.5404,-3.5479,-3.5469,-3.548,-3.5512,-3.5525,-3.5546,-3.5546,-3.5534,-3.5543,-3.5508,-3.5549,-3.5489,-3.5544,-3.5499,-3.551,-3.5505,-3.5509,-3.5508,-3.5441,-3.5539,-3.5708,-3.5724,-3.5512,-3.551,-3.5508,0,-3.5507,-3.5542,-3.5592,-3.5595,-3.5585,-3.561,-3.5607,-3.5604,-3.5615,-3.5627,-3.5634,-3.5651,-3.5659,-3.5673,-3.5644,-3.5603,-3.5703,-3.5641,-3.5693,-3.5694,-3.5714,-3.5713,-3.5885,-3.5726,-3.5725,-3.5725,-3.5725,0,-3.5634,-3.5682,-3.5643,-3.5673,-3.5726,-3.569,-3.5743,-3.5734,-3.5732,-3.576,-3.5716,-3.5743,-3.5705,-3.5729,-3.5707,-3.5755,-3.576,-3.5751,-3.5744,-3.5754,-3.5755,-3.5758,-3.5749,-3.5729,-3.5728,-3.5728,-3.5727,0,-3.577,-3.5746,-3.5796,-3.5784,-3.5782,-3.5821,-3.581,-3.5837,-3.5822,-3.5858,-3.5865,-3.584,-3.5866,-3.584,-3.5864,-3.5849,-3.5914,-3.5898,-3.5914,-3.5908,-3.5962,-3.5956,-3.6141,-3.6163,-3.5991,-3.5993,-3.5994,0,-3.5851,-3.5887,-3.5879,-3.5894,-3.5894,-3.592,-3.5932,-3.5899,-3.5914,-3.5918,-3.5945,-3.5968,-3.5983,-3.6027,-3.6012,-3.603,-3.6013,-3.6076,-3.6015,-3.6024,-3.6012,-3.6009,-3.6012,-3.6088,-3.609,-3.6092,-3.6093,0,-3.5998,-3.5985,-3.6004,-3.602,-3.6036,-3.6047,-3.6054,-3.607,-3.6036,-3.6055,-3.6081,-3.6093,-3.6119,-3.6141,-3.6156,-3.6153,-3.6118,-3.6113,-3.6126,-3.6134,-3.6142,-3.6137,-3.5946,-3.6108,-3.6107,-3.6105,-3.6105,-3.6104,-3.6107,-3.6137,-3.6136,-3.6159,-3.6162,-3.617,-3.6196,-3.6184,-3.6205,-3.6223,-3.6203,-3.6235,-3.6236,-3.6251,-3.6253,-3.6278,-3.6251,-3.627,-3.6274,-3.6279,-3.6286,-3.614,-3.6281,-3.628,-3.628,-3.628,-3.6279,0,-3.625,-3.6247,-3.627,-3.6282,-3.6301,-3.6267,-3.6274,-3.6292,-3.6321,-3.6325,-3.6342,-3.6373,-3.6395,-3.6383,-3.6402,-3.6424,-3.6409,-3.643,-3.6427,-3.6427,-3.631,-3.6296,-3.6443,-3.6443,-3.6443,-3.6443,-3.6443,-3.6443,-3.6326,-3.6374,-3.6361,-3.6411,-3.6407,-3.6438,-3.6446,-3.6453,-3.6456,-3.6493,-3.6511,-3.6503,-3.6501,-3.652,-3.6539,-3.6535,-3.6544,-3.6571,-3.6561,-3.6451,-3.6435,-3.642,-3.6406,-3.6574,-3.6574,-3.6676,-3.6677,-3.6677]},{"header":{"parameterUnit":"m.s-1","parameterCategory":1,"la1":30.2991,"la2":30.254,"lo1":-89.0895,"lo2":-89.0444,"dy":0.0017,"dx":0.0017,"nx":28,"ny":28,"refTime":"2024-08-23T21:00:00:Z","depth":0,"parameterNumber":3,"parameterNumberName":"V-component_of_WINDS"},"data":[0,0,0,0,0,0,0,0,0,0,0,0,0,0,0,0,0,0,0,0,0,0,0,0,0,0,0,0,0,0,0,0,0,0,0,0,0,0,0,0,0,0,0,0,0,0,0,0,0,0,0,0,0,0,0,0,0,0,1.7296,1.7296,0,1.7336,1.7337,1.7337,1.7386,1.7387,1.7388,1.7388,1.7426,1.7426,1.7426,0,0,0,0,0,0,0,0,0,0,0,0,0,1.7259,1.726,1.7296,1.7296,1.7297,1.7336,1.7337,1.7337,1.7386,1.7387,1.7388,1.7389,1.7426,1.7426,1.7427,0,0,0,0,0,0,0,0,0,0,0,0,0,1.7285,1.726,1.7296,1.7326,1.7329,1.7336,1.7337,1.7337,1.7386,1.7387,1.7388,1.7389,1.7426,1.7426,1.7427,1.7406,0,0,1.7428,1.7428,0,0,0,0,0,0,0,0,1.7283,1.7286,1.7321,1.7324,1.7327,1.7357,1.7338,1.736,1.7385,1.7364,1.7388,1.739,1.7402,1.7404,1.7409,1.7408,1.7409,1.7428,1.7428,1.7428,1.7428,0,0,0,0,0,0,0,1.7281,1.7285,1.7312,1.7322,1.7325,1.7337,1.7342,1.7342,1.7376,1.7366,1.737,1.7374,1.7404,1.7409,1.741,1.741,1.7428,1.7428,1.7429,1.7429,1.7394,1.7393,0,0,0,0,0,0,1.7275,1.7283,1.731,1.7313,1.7308,1.7337,1.7342,1.7346,1.7376,1.7382,1.7373,1.7376,1.7407,1.741,1.7412,1.739,1.7428,1.7429,1.7429,1.7395,1.7393,1.7392,0,0,0,0,0,0,1.7274,1.7277,1.7309,1.7299,1.7304,1.7336,1.7341,1.7347,1.7352,1.7381,1.7387,1.7372,1.7408,1.7411,1.7407,1.7392,1.7429,1.7429,1.7396,1.7394,1.7393,1.7345,0,0,0,0,0,0,1.7273,1.7277,1.727,1.7298,1.7304,1.7304,1.734,1.7347,1.7353,1.7357,1.7382,1.7387,1.741,1.7406,1.7408,1.7393,1.743,1.7398,1.7395,1.7393,1.7348,1.7342,1.7337,0,0,0,0,0,1.7272,1.7254,1.7269,1.7272,1.7296,1.7303,1.7306,1.7334,1.7351,1.7344,1.7363,1.7386,1.7394,1.7406,1.7408,1.7393,1.7399,1.7396,1.7393,1.7351,1.7343,1.7337,0,0,0,0,0,0,1.7221,1.7258,1.7275,1.7266,1.7281,1.7311,1.7303,1.7325,1.7334,1.7337,1.737,1.7375,1.7367,1.738,1.7393,1.7375,1.74,1.7397,1.7366,1.7359,1.7354,1.735,1.743,0,0,0,0,0,1.7209,1.7212,1.7244,1.7233,1.724,1.727,1.7274,1.7294,1.7311,1.7317,1.7336,1.735,1.7356,1.7358,1.7365,1.7351,1.7357,1.7341,1.7336,1.7331,1.7328,1.7321,1.7315,1.7383,1.7383,1.7383,0,0,1.7183,1.7204,1.7204,1.7224,1.7238,1.724,1.7275,1.7276,1.7277,1.7316,1.7314,1.7329,1.7347,1.7337,1.7334,1.7347,1.7311,1.7327,1.7323,1.7323,1.7318,1.7311,1.7306,1.7382,1.7382,1.7382,0,0,1.7138,1.7155,1.7147,1.7161,1.7183,1.7203,1.7201,1.7228,1.724,1.7238,1.7268,1.727,1.7279,1.7291,1.7298,1.7259,1.728,1.726,1.7229,1.7223,1.7217,1.7213,1.7198,1.7193,1.7257,1.7257,1.7257,0,1.7104,1.7109,1.7141,1.714,1.7148,1.7185,1.7178,1.7189,1.7211,1.7215,1.723,1.7243,1.7257,1.7251,1.7242,1.7247,1.7245,1.7257,1.7216,1.7211,1.7207,1.7194,1.7189,1.7255,1.7255,1.7255,1.7256,0,1.7065,1.7069,1.706,1.7082,1.7089,1.7085,1.7115,1.7118,1.7138,1.7156,1.7154,1.7174,1.7185,1.7186,1.7204,1.7182,1.719,1.721,1.7236,1.7198,1.7186,1.7181,1.7251,1.7252,1.7253,1.7253,0,0,1.6988,1.7029,1.7025,1.7036,1.7062,1.7065,1.7063,1.7076,1.7077,1.7091,1.709,1.7097,1.7116,1.7124,1.7145,1.7139,1.7107,1.716,1.7161,1.7149,1.7083,1.7068,1.7062,1.7121,1.7121,1.712,1.7082,0,1.6947,1.6947,1.6975,1.6966,1.697,1.7006,1.7004,1.702,1.7037,1.7042,1.7061,1.7066,1.7091,1.7096,1.7092,1.7111,1.7094,1.7115,1.7119,1.7119,1.7113,1.7055,1.7039,1.7002,1.7077,1.7077,1.7076,0,1.6899,1.6913,1.6904,1.6932,1.6935,1.6933,1.6947,1.6952,1.697,1.6984,1.6993,1.7017,1.7016,1.7041,1.704,1.7054,1.7058,1.7067,1.7067,1.7067,1.7095,1.7054,1.6991,1.6985,1.7069,1.707,1.707,0,1.6843,1.6859,1.6856,1.6864,1.6897,1.6895,1.6908,1.6928,1.6934,1.6946,1.6951,1.6962,1.6968,1.6976,1.7002,1.7018,1.6998,1.7025,1.7008,1.7007,1.7001,1.7001,1.6937,1.7005,1.7005,1.7005,1.7005,0,1.6795,1.6788,1.6831,1.6829,1.6823,1.6856,1.6849,1.6866,1.6883,1.6885,1.6917,1.6917,1.6952,1.6956,1.6977,1.6973,1.6975,1.6985,1.699,1.6982,1.698,1.6984,1.6987,1.7003,1.7004,1.7004,1.7004,0,1.673,1.6759,1.6759,1.6791,1.6799,1.6792,1.6819,1.6818,1.6839,1.684,1.6842,1.6874,1.688,1.6908,1.6921,1.6934,1.6923,1.6934,1.6917,1.692,1.6901,1.6903,1.6837,1.683,1.6902,1.6902,1.6901,0,1.6697,1.6693,1.6725,1.6729,1.6742,1.6747,1.6754,1.6787,1.6793,1.6815,1.6811,1.6821,1.683,1.6839,1.6862,1.6872,1.6883,1.6859,1.6885,1.6876,1.6882,1.6882,1.6881,1.6853,1.6852,1.6852,1.6851,0,1.6634,1.6649,1.6659,1.6673,1.6681,1.6694,1.6708,1.6709,1.6746,1.675,1.6759,1.6766,1.678,1.6789,1.6803,1.6816,1.6839,1.6843,1.684,1.683,1.6821,1.6825,1.6901,1.6844,1.6845,1.6845,1.6846,1.6846,1.6584,1.6583,1.6606,1.6615,1.663,1.6643,1.6644,1.6665,1.6673,1.6688,1.6707,1.6712,1.6731,1.6753,1.6764,1.6769,1.6782,1.6776,1.6775,1.6773,1.6769,1.6821,1.6771,1.6772,1.6772,1.6772,1.6772,0,1.6523,1.654,1.6549,1.6569,1.6576,1.66,1.6617,1.6621,1.6626,1.6643,1.6652,1.6661,1.6671,1.6695,1.6706,1.6705,1.6716,1.6707,1.6707,1.6709,1.6757,1.6759,1.6698,1.6698,1.6698,1.6698,1.6698,1.6698,1.6492,1.6491,1.6509,1.6515,1.6532,1.6539,1.6547,1.6559,1.6572,1.6582,1.659,1.6607,1.6626,1.664,1.6649,1.6656,1.6658,1.6645,1.6655,1.6699,1.6706,1.6713,1.6714,1.6645,1.6645,1.6608,1.6607,1.6607]}]]